SCP
1 1 1 1 0 0 0 0 0 0 0 0 0 0 0 0 0 0 0 0 0 0 0 0 0 0 0 1 1 1 1 1 1 1 1 1 1 1 1 1 1 1 1 1 1 1 2 2 3
2 2 1 1 0 0 0 0 0 0 0 0 0 0 0 0 0 0 0 0 0 0 0 0 0 0 0 1 1 1 1 1 1 1 1 1 1 1 1 1 1 1 1 1 1 1 1 2 2
2 2 1 0 0 0 0 0 0 0 0 0 0 0 0 0 0 0 0 0 0 0 0 0 0 0 0 1 1 1 1 1 1 1 1 1 1 1 1 1 1 1 1 1 1 1 1 1 1
1 1 0 0 0 0 0 0 0 0 0 0 0 0 0 0 0 0 0 0 0 0 0 0 0 1 1 1 1 1 1 1 1 1 1 1 1 1 1 1 1 1 1 1 1 1 1 1 1
0 0 0 0 0 0 0 0 0 0 0 0 0 0 0 0 0 1 1 0 0 0 0 0 1 1 1 1 1 1 1 1 1 1 1 1 1 1 1 1 1 1 1 1 1 1 1 1 1
0 0 0 0 0 0 0 0 0 0 0 0 0 0 0 0 0 1 1 0 0 0 0 0 1 1 1 1 1 0 0 0 1 1 1 1 1 1 1 1 1 1 1 0 0 0 1 1 1
0 0 0 0 0 0 0 0 0 0 0 0 0 0 0 0 0 0 1 1 0 0 0 0 0 1 1 1 0 0 0 0 0 1 1 1 1 1 1 1 1 1 0 0 0 0 0 1 1
0 0 0 0 0 0 0 0 0 0 0 0 0 0 0 0 0 0 1 1 0 0 0 0 0 0 0 0 0 0 0 0 0 1 1 0 0 0 0 0 0 0 0 0 0 0 0 0 0
0 0 0 0 0 0 0 0 0 0 0 0 0 0 0 0 0 0 1 1 1 0 0 0 0 0 0 0 0 0 0 0 0 0 0 0 0 0 0 0 0 0 0 0 0 0 0 0 0
0 0 0 0 0 0 0 0 0 0 0 0 0 1 1 1 0 0 1 1 1 1 0 0 0 0 0 0 0 0 0 0 0 0 0 0 0 0 0 0 0 0 0 0 0 0 0 0 0
0 0 0 0 0 0 0 0 0 0 0 0 1 1 1 1 1 0 1 1 1 1 1 0 0 0 0 0 0 0 0 0 0 0 0 0 0 0 0 0 0 0 0 0 0 0 0 0 0
0 0 0 0 0 0 0 0 0 0 0 0 1 1 1 1 1 1 1 1 1 1 1 1 0 0 0 0 0 0 0 0 0 0 0 0 0 0 0 0 0 0 0 0 0 0 0 0 0
0 0 0 0 0 0 0 0 0 0 0 0 1 1 1 1 1 1 1 1 1 1 1 1 1 0 0 0 0 0 0 0 0 0 0 0 0 0 0 0 0 0 0 0 0 0 0 0 0
0 0 0 0 0 0 0 0 0 0 0 0 0 1 1 1 1 1 1 1 1 1 1 1 0 0 0 0 0 0 0 0 0 0 0 0 0 0 0 0 0 0 0 0 0 0 0 0 0
0 0 0 0 0 0 0 0 0 0 0 0 0 0 1 1 1 1 1 2 1 1 0 0 0 0 0 0 0 0 0 0 0 0 0 0 0 0 0 0 0 0 0 0 0 0 0 0 0
0 0 0 0 0 0 0 0 0 0 0 0 0 0 1 1 1 1 1 1 1 0 0 0 0 0 0 0 0 0 0 0 0 0 0 0 0 0 0 0 0 0 0 0 0 0 0 0 0
0 0 0 0 0 0 0 0 0 0 0 0 0 0 0 1 0 0 1 1 0 0 0 0 0 0 0 0 0 0 0 0 0 0 0 0 0 0 0 0 0 0 0 0 0 0 0 0 0
0 0 0 0 0 0 0 0 0 0 0 0 0 0 0 0 0 0 0 0 0 0 0 0 0 0 0 0 0 0 0 0 0 0 0 0 0 0 0 0 0 0 0 0 0 0 0 0 0
0 0 0 0 0 0 0 0 0 0 0 0 0 0 0 1 0 0 0 0 0 0 0 0 0 0 0 0 0 0 0 0 0 0 0 0 0 0 0 0 0 0 0 0 0 0 0 0 0
0 0 0 0 0 0 0 0 0 0 0 0 0 0 1 1 0 0 0 0 0 0 0 0 0 0 0 0 0 0 0 0 0 0 0 0 0 0 0 0 0 0 0 0 0 0 0 0 0
0 0 0 0 0 0 0 0 0 0 0 0 0 0 1 1 0 0 0 0 0 0 0 0 0 0 0 0 0 0 0 0 0 0 0 0 0 0 0 0 0 0 0 0 0 0 0 0 0
0 0 0 0 0 0 0 0 0 0 0 0 0 0 1 1 0 0 0 0 0 0 0 0 0 0 0 0 0 0 0 0 0 0 0 0 0 0 0 0 0 0 0 0 0 0 0 0 0
0 0 0 0 0 0 0 0 0 0 0 0 0 0 0 0 0 0 0 0 0 0 0 0 0 0 0 0 0 0 0 0 0 0 0 0 0 0 0 0 0 0 0 0 0 0 0 0 0
0 0 0 0 0 0 0 0 0 0 0 0 0 0 0 0 0 0 0 0 0 0 0 0 0 0 0 0 0 0 0 0 0 0 0 0 0 0 0 0 0 0 0 0 0 0 0 0 0
0 0 0 0 0 0 0 0 0 0 0 0 0 0 0 0 0 0 0 0 0 0 0 0 0 0 0 0 0 0 0 0 0 0 0 0 0 0 0 0 0 0 0 0 0 0 0 0 0
0 0 0 0 0 0 0 0 0 0 0 0 0 0 0 0 0 0 0 0 0 0 0 0 0 0 0 0 0 0 0 0 0 0 0 0 0 0 0 0 0 0 0 0 0 0 0 0 0
0 0 0 0 0 0 0 0 0 0 0 0 0 0 0 0 0 0 0 0 0 0 0 0 0 0 0 0 0 0 0 0 0 0 0 0 0 0 0 0 0 0 0 0 0 0 0 0 0
0 0 0 0 0 0 0 0 0 0 0 0 0 0 0 0 0 0 0 0 0 0 0 0 0 0 0 0 0 0 0 0 0 0 0 0 0 0 0 0 0 0 0 0 0 0 0 0 0
0 0 0 0 0 0 0 0 0 0 0 0 0 0 0 0 0 0 0 0 0 0 0 0 0 0 0 0 0 0 0 0 0 0 0 0 0 0 0 0 0 0 0 0 0 0 0 0 0
0 0 0 0 0 0 0 0 0 0 0 0 0 0 0 0 0 0 0 0 0 0 0 0 0 0 0 0 0 0 0 0 0 0 0 0 0 0 0 0 0 0 0 0 0 0 0 0 0
Wind_Speed
2 1 2 3 6 6 4 2 2 3 4 5 8 10 8 6 4 4 1 4 5 3 2 4 7 8 8 9 9 9 10 10 10 10 10 10 10 10 10 10 10 10 11 11 10 10 10 10 10
1 0 3 4 6 5 3 1 4 4 6 7 8 8 7 6 4 4 2 4 5 4 2 4 7 8 8 9 9 10 10 10 9 10 10 10 10 10 10 10 10 10 10 11 10 10 10 10 10
1 1 3 5 4 4 3 2 5 5 5 5 6 6 5 3 3 3 4 6 5 3 2 4 8 8 8 8 9 9 9 9 9 9 9 9 9 9 9 10 10 10 10 10 10 9 10 10 10
2 4 5 6 6 1 4 3 5 6 6 6 6 6 4 2 2 4 6 6 5 3 3 4 8 7 8 8 8 8 8 9 9 9 9 9 9 9 9 9 9 10 9 9 9 9 9 9 9
3 5 6 5 4 2 4 4 5 7 4 6 7 6 3 2 5 7 7 6 6 4 2 4 8 7 8 8 8 8 8 8 9 9 8 9 9 9 9 9 9 9 9 9 9 9 9 9 9
4 5 6 4 4 3 3 4 8 9 7 6 7 6 2 1 4 5 6 5 6 5 3 3 7 8 8 8 8 8 7 7 8 8 8 8 8 8 8 8 8 8 8 9 9 8 8 9 9
5 5 4 4 4 4 4 4 6 6 5 4 6 5 2 1 3 5 5 5 5 4 4 2 3 4 6 7 7 7 7 6 7 7 7 7 7 7 7 8 8 8 8 8 8 7 7 8 8
5 5 4 3 4 3 2 3 4 6 4 5 5 7 4 4 4 5 4 5 4 4 4 3 2 2 2 3 6 6 5 6 6 6 6 7 7 6 6 7 7 8 8 7 7 6 6 7 7
5 7 3 3 4 3 3 5 3 4 6 4 3 5 6 7 5 5 3 2 3 4 3 3 3 3 2 2 3 4 4 4 4 4 5 5 3 2 3 4 5 6 6 6 6 6 6 6 7
5 5 3 3 5 5 4 5 4 5 6 5 5 4 6 6 6 5 4 3 3 3 4 3 3 3 2 2 2 1 1 1 1 2 2 2 1 1 2 4 5 5 5 5 5 6 6 6 4
4 5 4 4 5 6 5 4 4 6 3 5 7 9 7 6 5 4 4 4 4 4 4 4 4 3 3 2 2 1 1 1 1 2 2 2 2 1 2 2 2 3 3 2 3 3 3 3 3
5 4 5 5 5 5 4 3 3 4 5 7 10 11 8 7 6 5 5 4 3 4 4 4 5 4 3 2 2 2 1 1 1 2 3 2 2 1 1 1 1 1 1 2 2 2 3 3 4
6 3 4 5 5 5 5 4 4 3 5 8 9 9 8 7 6 5 5 4 4 4 4 5 5 5 4 3 2 2 2 1 1 1 2 3 2 2 1 1 1 1 1 1 2 2 4 4 4
4 3 3 4 4 4 6 3 4 3 6 9 9 8 7 7 6 5 4 4 4 4 4 4 5 4 4 3 2 2 2 1 2 2 2 3 2 2 2 2 2 1 1 1 2 3 4 3 3
4 4 3 1 2 2 5 3 1 4 8 9 7 7 7 6 6 6 6 5 5 5 5 5 5 4 4 3 3 2 2 2 2 1 2 3 3 3 3 2 2 1 2 2 3 3 3 3 3
4 3 1 2 2 2 6 1 4 4 7 7 6 6 6 5 6 6 6 5 5 5 5 5 5 5 4 3 3 2 2 2 1 2 2 3 3 4 3 3 2 2 2 3 3 3 3 3 3
2 2 1 2 1 3 4 3 3 4 7 7 6 6 6 5 5 5 6 7 6 6 5 5 5 5 4 4 3 3 2 2 2 2 2 3 3 3 3 2 2 2 2 2 3 2 2 3 3
3 3 2 2 1 4 3 2 3 4 6 6 6 5 5 6 6 7 7 6 6 5 5 6 5 5 4 4 3 2 3 2 2 2 2 2 2 3 3 2 2 3 3 3 3 3 3 2 2
4 3 2 3 2 4 2 2 3 3 4 4 4 5 5 6 5 5 6 6 6 6 6 5 5 4 4 3 2 2 1 1 1 1 2 2 2 3 3 3 2 3 3 2 3 3 3 2 2
5 4 2 1 2 3 2 2 3 2 5 7 8 7 6 5 4 5 5 5 6 6 6 5 5 4 3 2 2 2 2 1 1 1 2 2 2 2 3 3 2 2 3 3 3 3 2 1 1
3 5 5 3 0 2 3 4 3 3 1 3 5 6 7 9 8 7 6 6 6 6 6 6 5 4 3 3 3 3 3 2 2 2 1 1 1 2 3 3 2 2 2 2 2 3 3 2 0
3 4 5 4 3 1 2 1 6 3 0 1 3 5 7 8 7 7 7 7 7 6 6 5 5 4 4 4 4 4 3 1 1 1 0 0 1 2 2 3 3 2 2 2 2 2 2 3 1
4 3 3 3 3 0 0 2 6 1 2 3 3 5 7 8 9 9 8 8 6 6 6 5 5 4 3 4 5 4 2 1 1 1 1 0 0 1 2 3 2 2 1 2 1 2 2 2 2
3 4 5 5 4 1 4 4 5 3 6 4 3 4 6 7 8 8 6 6 5 5 5 5 5 4 3 4 4 4 4 2 2 1 1 0 0 0 1 2 2 2 1 2 2 1 2 2 1
5 6 4 4 3 5 3 3 6 5 5 6 6 5 6 7 7 7 7 7 6 6 6 5 5 4 3 3 3 4 4 4 4 3 2 2 1 0 1 1 1 1 1 1 1 1 1 2 2
3 8 7 4 4 4 2 3 5 3 2 3 4 5 5 6 7 8 8 8 7 7 6 6 5 4 3 3 3 3 4 3 2 3 3 3 2 2 2 2 1 1 1 1 1 1 1 1 1
4 3 6 6 2 1 3 2 3 2 4 4 4 4 5 6 7 8 7 7 7 7 6 6 6 4 4 4 3 3 3 3 3 3 3 2 2 2 2 2 2 1 1 1 2 1 0 1 1
5 6 5 4 3 2 2 3 4 3 2 3 4 4 3 5 6 7 7 7 6 6 5 5 6 5 4 4 3 3 3 3 3 2 3 3 2 2 3 2 2 2 2 2 2 1 0 1 1
1 2 4 4 4 5 2 5 6 7 6 5 4 4 4 5 6 6 6 6 6 5 5 5 5 4 3 3 3 2 2 2 2 2 3 3 2 3 3 3 2 2 2 2 2 1 1 1 0
4 4 5 4 2 3 3 6 3 5 5 5 5 4 4 4 5 5 5 5 4 5 4 4 4 4 4 3 3 3 2 2 2 2 2 2 2 2 3 3 3 2 2 2 2 2 1 2 1
Wind_Direction
288 328 87 62 55 58 61 34 87 59 58 58 69 78 79 62 74 117 221 128 132 136 124 106 98 92 91 92 90 92 92 91 89 87 87 89 91 91 92 90 91 91 90 87 83 79 80 80 84
330 43 71 58 74 76 52 47 75 79 128 120 80 76 76 70 83 112 122 139 135 130 126 116 106 98 96 96 92 93 94 92 92 90 89 89 90 91 94 95 95 95 92 89 84 82 81 81 82
267 132 80 66 72 106 121 111 96 83 92 93 79 57 67 86 104 135 163 151 132 121 124 127 114 107 103 100 97 96 95 95 93 91 91 92 92 91 94 97 97 96 95 92 87 83 82 81 79
69 48 53 73 83 98 134 130 109 88 62 60 92 66 52 59 133 147 146 139 126 123 126 134 124 116 108 106 105 100 96 97 98 94 92 92 95 93 92 95 98 98 97 95 91 88 85 81 78
73 71 65 73 77 73 98 113 96 88 76 73 88 91 60 20 110 127 140 139 132 134 137 140 129 123 117 113 111 107 101 100 98 96 94 93 92 90 91 93 97 100 100 99 96 91 86 83 78
58 69 82 85 77 65 71 90 91 90 101 105 99 104 117 135 117 139 142 140 143 144 145 139 132 127 123 119 116 113 107 104 99 95 96 96 94 92 93 95 98 102 104 103 99 95 89 82 77
96 82 96 109 89 76 90 90 97 107 112 121 119 105 138 185 159 147 140 137 140 142 139 142 132 128 130 128 124 121 113 107 108 101 98 98 97 94 97 98 99 103 105 102 99 96 91 85 79
117 95 80 89 98 91 97 93 108 109 107 124 117 130 174 203 170 137 130 131 138 142 144 150 142 130 133 132 135 132 127 119 118 114 102 96 94 93 97 101 103 106 104 100 98 95 89 82 79
83 81 100 137 127 123 101 93 77 79 89 70 84 143 167 158 140 122 118 117 138 152 161 163 160 165 167 163 146 140 135 125 120 113 108 94 63 58 77 102 110 111 111 104 95 88 80 76 73
82 102 146 161 149 139 115 111 112 88 82 78 75 94 123 134 135 134 140 150 163 170 172 166 165 172 179 157 124 117 117 81 84 95 100 100 88 67 79 78 98 101 97 94 91 82 69 63 59
101 127 127 114 124 116 108 104 107 113 111 153 151 151 147 141 142 147 153 157 167 167 155 159 162 158 152 134 120 106 89 75 86 110 116 103 87 63 55 51 44 47 57 48 59 56 50 60 67
90 105 118 124 118 111 117 111 94 125 169 168 158 153 146 146 157 161 157 158 144 132 137 142 148 141 138 129 117 117 115 107 99 108 119 112 99 88 85 75 57 43 44 55 48 60 61 67 77
88 100 102 121 117 112 106 109 117 127 144 142 141 142 146 152 159 163 155 143 128 117 118 130 138 138 135 124 125 113 114 115 107 97 111 115 114 109 91 69 67 60 68 87 80 76 80 76 76
128 104 96 113 118 108 101 88 96 159 139 138 143 154 157 161 159 145 136 131 122 118 115 118 125 131 125 120 115 118 123 120 96 85 95 111 114 109 100 86 74 73 76 82 88 89 89 82 80
100 76 38 79 140 149 102 49 170 177 142 144 154 160 159 159 152 152 155 148 140 133 122 120 128 118 114 120 125 116 116 104 92 85 87 105 111 110 110 96 76 74 79 79 78 77 81 83 75
68 64 41 291 151 149 107 181 263 168 146 158 165 158 154 158 155 153 147 139 139 136 132 132 130 114 110 108 107 104 103 96 85 80 84 103 111 111 104 96 84 80 86 87 86 83 82 74 71
50 132 184 278 223 143 128 201 247 167 151 162 170 167 162 159 156 156 152 145 141 139 132 122 119 118 114 109 98 91 87 85 84 78 76 92 99 100 101 97 98 92 87 89 100 87 95 89 76
195 170 174 204 225 113 130 211 230 179 162 172 176 171 167 168 179 168 157 151 141 136 128 121 119 117 110 95 83 69 66 60 61 81 86 98 100 101 102 98 93 90 88 80 88 95 80 90 89
160 139 156 207 177 121 154 219 240 193 166 168 174 181 180 184 187 164 152 142 130 129 129 126 123 123 114 101 99 92 79 61 50 71 98 108 110 107 109 105 94 92 98 107 109 105 94 84 98
143 141 166 219 152 128 151 259 259 200 188 182 179 185 182 170 156 157 145 138 137 140 140 138 142 138 130 127 134 134 129 112 73 33 59 95 114 120 121 120 119 113 107 99 103 110 106 108 119
180 173 182 179 171 69 82 345 310 293 206 174 184 183 179 174 170 167 153 148 142 142 151 153 152 145 143 131 105 79 59 42 33 25 29 41 117 126 125 127 119 121 122 132 139 137 137 149 212
211 207 167 153 120 276 121 277 286 263 284 188 190 180 178 175 168 164 161 156 154 159 154 144 146 149 146 131 126 127 125 140 209 214 247 343 131 134 130 130 135 134 132 144 162 145 148 142 145
193 172 147 153 143 5 247 165 280 259 227 236 217 189 178 176 171 171 170 165 159 154 149 146 142 145 147 140 143 137 135 171 192 135 110 52 6 146 135 134 134 139 154 167 159 139 145 147 150
133 72 42 51 74 309 231 171 267 224 215 211 210 193 174 171 169 169 162 149 147 147 144 143 145 149 154 150 149 149 156 162 148 140 139 169 314 67 136 134 138 155 170 180 176 162 162 168 159
93 87 37 1 14 256 245 167 242 233 212 186 186 189 176 163 160 154 149 154 158 156 155 155 156 163 168 160 163 167 170 171 175 183 178 173 172 206 219 159 156 168 188 184 167 159 181 173 163
169 139 155 192 216 271 327 205 252 255 193 155 156 158 151 155 159 160 162 162 161 158 158 160 164 168 175 169 177 182 178 173 182 188 178 183 193 204 201 184 174 174 166 154 133 122 202 151 155
143 166 168 145 195 255 295 297 320 19 64 88 107 119 150 165 164 164 162 162 163 163 166 167 166 170 182 182 180 191 192 184 187 191 181 186 196 195 183 176 163 161 155 151 133 117 161 130 144
155 152 105 126 159 241 283 247 226 214 168 127 125 140 162 169 165 163 166 170 170 170 169 166 165 174 179 178 181 183 198 192 185 178 184 193 196 183 160 156 157 155 152 148 134 129 120 115 155
127 124 121 130 152 156 227 262 223 192 180 168 166 161 159 168 168 166 173 175 166 161 163 167 170 170 175 182 181 171 191 187 171 175 191 191 182 172 167 169 166 165 165 154 140 161 139 131 120
162 163 140 148 203 166 173 264 266 176 167 154 158 160 159 158 164 162 161 158 159 168 170 174 174 176 187 187 176 180 182 171 174 186 193 176 174 183 178 168 164 169 165 159 161 178 169 171 187